Total_Precipitation_Accumulation
0.00 0.00 0.00 0.00 0.00 0.00 0.00 0.01 0.03 0.02 0.02 0.02 0.03 0.04 0.15 0.07 0.13 0.66 0.71 1.17 0.97 0.35 0.22 0.13 0.16 0.22 0.39 0.49 0.43 0.31 0.16 0.04
0.00 0.00 0.00 0.00 0.00 0.00 0.00 0.02 0.04 0.02 0.02 0.03 0.04 0.05 0.11 0.09 0.17 0.36 0.68 0.88 1.60 0.91 0.47 0.17 0.14 0.16 0.21 0.31 0.40 0.24 0.22 0.04
0.00 0.00 0.00 0.00 0.00 0.00 0.00 0.01 0.02 0.01 0.01 0.01 0.02 0.02 0.07 0.11 0.19 0.29 0.36 0.53 0.94 1.26 0.70 0.45 0.21 0.21 0.19 0.31 0.31 0.18 0.16 0.04
0.00 0.00 0.00 0.00 0.00 0.00 0.00 0.01 0.01 0.02 0.01 0.02 0.02 0.03 0.06 0.11 0.27 0.50 0.33 0.35 0.71 0.94 0.88 0.68 0.41 0.31 0.18 0.13 0.22 0.13 0.07 0.05
0.00 0.00 0.00 0.00 0.00 0.00 0.00 0.00 0.01 0.01 0.01 0.02 0.02 0.02 0.03 0.03 0.04 0.24 0.44 0.24 0.41 0.72 0.72 0.65 0.47 0.32 0.31 0.13 0.16 0.15 0.08 0.03
0.00 0.00 0.00 0.00 0.00 0.00 0.00 0.00 0.01 0.01 0.02 0.01 0.01 0.01 0.01 0.02 0.03 0.06 0.30 0.41 0.23 0.50 0.63 0.72 0.53 0.40 0.32 0.21 0.14 0.14 0.09 0.04
0.00 0.00 0.00 0.00 0.00 0.00 0.00 0.01 0.02 0.01 0.01 0.01 0.00 0.01 0.01 0.02 0.03 0.04 0.09 0.27 0.50 0.55 0.66 0.59 0.62 0.41 0.31 0.31 0.18 0.13 0.09 0.04
0.00 0.00 0.00 0.00 0.00 0.00 0.00 0.00 0.01 0.01 0.01 0.01 0.01 0.01 0.01 0.02 0.02 0.02 0.03 0.06 0.20 0.39 0.53 0.56 0.56 0.48 0.27 0.29 0.30 0.17 0.11 0.05
0.00 0.00 0.00 0.00 0.00 0.00 0.00 0.00 0.00 0.01 0.01 0.00 0.00 0.01 0.01 0.01 0.02 0.03 0.03 0.02 0.02 0.11 0.31 0.47 0.43 0.51 0.41 0.27 0.26 0.19 0.16 0.13
0.01 0.00 0.00 0.00 0.00 0.00 0.00 0.00 0.01 0.01 0.02 0.00 0.01 0.00 0.01 0.01 0.01 0.02 0.04 0.04 0.03 0.02 0.09 0.29 0.35 0.28 0.41 0.29 0.20 0.14 0.14 0.13
0.01 0.02 0.01 0.01 0.03 0.07 0.05 0.00 0.02 0.03 0.05 0.01 0.01 0.00 0.01 0.01 0.01 0.01 0.01 0.03 0.04 0.04 0.03 0.06 0.22 0.33 0.28 0.30 0.23 0.14 0.12 0.08
0.02 0.04 0.04 0.09 0.07 0.15 0.15 0.03 0.04 0.02 0.06 0.01 0.01 0.00 0.01 0.01 0.01 0.01 0.01 0.02 0.03 0.03 0.05 0.03 0.05 0.14 0.20 0.23 0.20 0.15 0.11 0.07
0.04 0.05 0.05 0.12 0.19 0.14 0.08 0.04 0.05 0.05 0.07 0.04 0.01 0.01 0.01 0.02 0.01 0.01 0.01 0.01 0.01 0.02 0.04 0.04 0.02 0.03 0.09 0.16 0.16 0.16 0.09 0.10
0.06 0.09 0.12 0.16 0.24 0.26 0.26 0.23 0.26 0.26 0.18 0.09 0.04 0.03 0.01 0.01 0.01 0.02 0.02 0.01 0.00 0.00 0.02 0.04 0.02 0.01 0.03 0.06 0.06 0.09 0.06 0.03
0.14 0.15 0.18 0.24 0.33 0.37 0.45 0.51 0.48 0.30 0.18 0.08 0.08 0.05 0.03 0.02 0.01 0.02 0.02 0.02 0.01 0.01 0.01 0.02 0.02 0.02 0.04 0.05 0.04 0.05 0.08 0.06
0.20 0.19 0.19 0.20 0.23 0.27 0.33 0.33 0.29 0.23 0.19 0.14 0.14 0.09 0.08 0.08 0.06 0.03 0.02 0.02 0.02 0.02 0.01 0.02 0.02 0.02 0.02 0.02 0.03 0.06 0.08 0.10
0.15 0.16 0.14 0.15 0.14 0.13 0.17 0.22 0.18 0.12 0.06 0.09 0.13 0.07 0.10 0.12 0.14 0.17 0.11 0.07 0.09 0.06 0.06 0.05 0.05 0.06 0.11 0.04 0.02 0.01 0.03 0.06
0.15 0.16 0.14 0.14 0.11 0.09 0.13 0.15 0.13 0.12 0.09 0.06 0.05 0.04 0.04 0.06 0.10 0.11 0.11 0.11 0.16 0.11 0.14 0.14 0.13 0.16 0.31 0.15 0.15 0.05 0.03 0.05
0.27 0.17 0.14 0.11 0.10 0.08 0.10 0.12 0.14 0.12 0.07 0.07 0.06 0.06 0.08 0.07 0.08 0.08 0.09 0.11 0.11 0.11 0.11 0.10 0.13 0.16 0.24 0.24 0.31 0.19 0.09 0.06